{"data":{"norad_id":62151,"epoch":"2026-05-25T02:27:22.959648Z","epoch_age_seconds":69277,"freshness":"FRESH","line1":"1 62151U 24224N   26145.10234907  .00014111  00000+0  52115-3 0  9997","line2":"2 62151  43.0021  86.7933 0002891 282.5482  77.5046 15.27590342 84160","mean_motion":15.27590342,"eccentricity":0.0002891,"inclination_deg":43.0021,"raan_deg":86.7933,"arg_perigee_deg":282.5482,"mean_anomaly_deg":77.5046,"bstar":0.00052115,"rev_number":8416,"period_min":94.266110514595,"perigee_km":481.03456859819,"apogee_km":485.00168849351,"semimajor_km":6861.1551285458,"source":"CELESTRAK","updated_at":"2026-05-25T13:38:19.571699Z"}}